Theta_e
317 318 318 317 319 319 319 318 317 315 312 311 310 310 310 311 311 312 314 318 317 315 316 334 344 348 349 351 351 348 351 350 348 348 352 351 352 350 347 348 348 348 349 349 348
309 310 310 311 312 314 318 318 319 318 316 313 312 311 310 310 311 313 317 318 316 316 326 337 340 344 347 348 351 348 352 348 345 345 349 351 351 350 348 348 348 349 348 349 348
308 308 308 308 309 309 311 312 314 318 317 317 314 312 311 310 313 317 317 318 318 316 326 334 336 341 342 345 348 345 350 346 344 343 347 351 351 350 348 349 347 349 348 348 348
304 304 305 306 307 308 309 310 311 313 317 317 317 314 312 310 319 320 319 320 320 319 328 334 337 341 341 346 345 347 344 347 344 342 344 350 350 351 348 346 346 349 348 348 348
302 302 303 303 304 305 306 307 311 313 314 316 317 317 313 315 314 316 318 319 317 328 330 334 338 338 340 341 342 347 343 343 344 342 341 345 350 350 349 346 345 348 348 348 348
301 301 302 302 303 304 304 307 312 313 315 316 318 316 313 316 314 313 315 316 325 331 330 333 336 336 336 339 340 340 341 341 340 341 339 344 347 349 349 349 347 348 348 348 348
300 301 301 301 302 303 304 305 311 314 317 317 317 315 316 318 314 313 320 329 333 332 329 331 334 336 334 338 332 337 337 334 334 337 338 343 347 350 350 350 349 348 348 347 347
300 301 301 301 302 303 304 306 311 314 316 317 317 314 319 317 316 314 320 326 333 332 330 331 332 336 333 329 328 331 332 334 336 336 337 341 346 349 350 351 350 349 348 347 347
300 301 301 302 302 302 304 308 312 313 314 317 315 317 321 315 314 314 324 326 333 333 331 332 331 332 334 331 330 330 334 335 338 335 338 342 344 344 349 350 351 350 348 346 346
300 300 301 301 302 302 305 309 311 312 315 319 318 318 318 319 318 313 321 324 331 332 328 330 328 330 333 334 332 332 333 335 338 336 339 344 344 342 346 348 350 350 348 347 346
301 301 301 301 301 303 303 310 315 319 312 322 326 322 322 320 319 314 318 327 332 328 325 324 326 327 326 329 330 331 332 334 337 336 337 340 342 343 342 347 347 350 349 349 347
301 301 301 301 302 303 306 309 306 305 309 311 312 316 322 321 323 318 319 322 326 327 325 324 326 326 326 325 327 328 330 332 335 334 334 337 338 339 339 344 346 348 349 349 348
300 301 301 302 302 305 307 307 306 306 310 314 314 315 315 318 321 322 317 320 325 326 324 326 325 325 325 326 327 327 329 331 333 334 332 334 336 337 336 339 342 345 348 349 349
300 301 301 301 306 305 307 306 307 306 315 318 316 316 316 319 321 322 316 320 322 325 325 326 325 325 325 326 326 327 327 328 330 332 336 334 340 340 339 341 344 344 347 349 348
300 301 301 302 304 307 306 306 306 308 317 320 317 315 316 321 324 321 320 317 322 322 325 325 325 324 325 325 325 325 326 326 327 329 331 334 336 337 339 340 344 346 345 348 348
300 302 302 306 307 306 305 306 308 315 315 321 316 317 318 319 322 322 321 318 319 323 324 324 323 325 325 325 325 325 325 326 327 328 331 333 335 337 338 340 340 344 344 347 348
300 302 303 303 305 304 304 308 311 314 317 320 320 319 320 320 322 321 323 324 326 325 324 324 325 324 324 326 326 325 326 327 327 328 330 332 333 335 335 336 339 341 343 345 348
301 302 303 304 304 304 306 310 310 315 317 316 316 317 320 321 320 321 323 325 325 326 327 326 326 325 325 326 327 325 326 327 328 327 328 330 331 333 334 334 335 336 338 344 347
302 305 305 304 304 306 307 309 309 315 313 314 316 319 322 320 320 321 322 325 326 327 329 328 328 326 326 325 327 327 329 326 327 328 328 329 329 330 332 334 334 334 335 338 344
303 305 305 304 305 307 309 308 310 310 311 313 315 317 320 320 321 321 322 322 325 326 327 329 330 327 325 326 326 328 327 326 327 328 329 327 329 330 332 332 334 334 336 337 341
305 306 305 304 306 307 308 307 307 307 309 311 313 314 316 317 319 321 323 320 321 325 324 327 329 329 326 326 327 326 327 327 327 327 328 329 329 330 331 333 333 334 335 338 341
305 306 304 304 307 307 307 307 306 307 307 310 311 311 315 317 318 321 322 320 316 321 325 326 328 331 328 326 327 327 327 328 328 330 328 329 329 328 329 330 333 333 334 336 338
305 305 304 304 307 307 306 306 306 307 308 309 312 312 312 315 318 319 319 316 315 320 324 325 327 331 331 328 327 327 327 327 327 328 331 329 328 329 330 330 332 333 333 334 336
305 307 305 305 305 306 306 306 306 306 307 306 308 310 312 312 315 317 317 315 314 316 316 319 327 330 332 331 329 328 327 327 327 330 329 331 330 329 329 330 331 330 330 330 333
305 305 305 306 305 305 305 305 305 306 306 305 308 308 310 313 313 314 315 315 315 314 317 319 327 326 329 325 325 329 328 328 328 329 330 330 330 331 330 330 330 330 330 331 333
305 304 304 304 304 304 304 305 306 306 305 306 308 306 307 311 312 312 312 314 315 315 316 317 324 323 326 324 323 324 326 327 328 329 329 330 331 330 330 329 329 329 328 329 328
305 304 305 304 305 304 305 304 304 304 305 305 305 306 306 307 307 308 308 310 311 312 315 315 319 321 326 324 324 325 326 326 327 328 329 330 330 330 330 330 329 329 329 329 329
Wind_Speed
18 19 18 19 19 19 19 18 19 19 19 18 17 17 19 18 19 23 26 19 12 18 11 19 20 18 18 14 9 4 6 4 5 4 9 13 8 7 7 15 8 9 9 26 32
19 19 20 20 20 20 20 21 20 20 20 19 19 17 18 19 20 27 26 20 18 18 20 26 27 24 22 17 9 10 9 5 5 4 3 13 8 10 9 15 14 10 16 31 33
21 21 21 21 21 21 21 22 23 22 21 20 19 18 15 14 16 13 12 14 24 24 23 22 21 24 20 15 15 10 10 3 6 8 1 12 10 9 9 12 19 18 26 34 34
23 23 23 22 21 21 22 23 25 25 23 21 19 17 14 8 5 3 5 9 15 26 23 24 25 27 18 14 18 9 11 8 3 3 1 7 11 11 12 4 15 18 27 36 35
25 25 25 23 22 23 23 26 24 23 23 22 20 16 11 10 18 8 8 1 18 28 28 28 29 29 19 18 11 16 8 6 10 8 4 7 10 9 15 7 16 20 28 33 32
25 26 27 27 24 25 25 28 24 25 21 20 20 15 10 15 11 12 20 15 18 27 28 28 28 25 14 11 16 10 16 9 9 10 8 9 9 13 13 13 17 24 28 33 32
27 27 28 29 27 27 28 28 26 22 17 17 19 15 14 24 13 11 15 20 21 24 29 28 20 26 10 12 14 17 10 11 12 14 6 9 10 13 12 19 21 24 27 30 31
29 30 30 31 30 28 28 25 25 18 13 11 14 12 12 11 18 17 16 19 21 21 20 23 16 26 12 4 8 16 16 15 15 16 13 14 11 17 18 23 24 26 27 29 32
31 32 32 31 32 29 26 23 22 17 11 4 6 9 8 13 18 21 17 20 23 21 19 20 21 21 24 13 13 14 15 19 14 11 10 16 11 14 22 24 23 26 29 29 30
33 35 35 33 33 26 22 21 18 15 4 2 3 7 13 6 9 23 20 16 25 24 18 22 20 15 17 17 19 19 19 16 19 14 13 16 16 7 21 23 23 25 27 29 31
33 33 33 34 33 18 23 14 8 4 7 12 3 8 1 4 8 21 26 26 21 27 17 29 19 25 27 24 20 16 16 20 16 11 13 16 15 14 15 21 21 24 27 30 32
34 34 34 33 28 16 16 5 8 8 17 20 27 30 21 3 11 20 32 23 25 24 21 18 28 23 21 20 20 22 17 20 13 7 12 15 15 14 12 18 22 25 29 31 28
34 33 33 31 19 20 10 7 12 15 10 16 18 21 19 26 14 26 41 33 26 29 30 24 14 24 23 21 23 23 23 18 17 14 15 14 16 15 14 16 18 24 27 28 30
35 33 33 30 10 19 6 17 16 10 6 8 8 7 17 19 15 23 39 39 19 29 28 24 17 25 24 26 24 25 23 19 18 12 13 16 17 20 22 17 18 22 27 30 33
33 31 29 20 17 11 19 21 13 2 7 9 7 6 8 23 8 29 33 40 23 22 28 21 26 23 27 26 25 21 17 18 20 17 17 22 10 16 13 17 19 20 27 31 33
32 29 21 13 11 16 22 19 2 6 10 5 6 8 9 20 10 13 29 36 29 24 26 27 18 24 23 19 23 14 16 14 15 16 19 23 20 19 17 18 18 21 25 29 31
29 25 13 14 15 23 21 8 7 10 5 4 6 2 8 12 20 14 26 32 22 24 28 26 25 18 16 23 20 22 20 10 12 16 20 22 22 20 8 19 21 18 26 28 32
30 22 9 14 21 22 13 8 13 3 9 18 13 18 15 10 13 21 20 26 33 26 17 22 20 29 24 26 22 28 24 11 17 15 17 17 22 24 23 23 8 25 22 24 28
29 14 7 17 20 15 9 8 8 13 14 14 19 10 11 6 6 13 22 24 32 29 24 22 24 29 20 22 24 25 25 28 11 5 8 15 19 16 14 21 26 28 24 24 27
24 11 9 20 15 9 8 6 10 11 16 15 16 6 8 5 8 8 16 4 17 34 4 16 18 18 25 27 26 20 26 21 15 16 19 13 19 13 22 23 22 23 26 26 28
16 9 12 19 10 11 5 8 13 17 14 9 14 14 12 12 9 6 2 8 7 6 5 14 15 22 23 26 29 23 18 24 17 17 12 11 12 16 18 17 23 23 29 28 27
14 6 17 17 5 5 7 11 12 15 15 17 10 14 16 12 10 4 4 8 9 7 13 15 10 12 26 20 26 28 24 29 13 23 19 14 8 7 7 16 18 22 27 27 27
14 8 12 15 6 7 9 11 10 10 10 11 9 13 13 15 5 4 1 4 12 9 0 4 14 15 14 21 23 28 28 25 25 16 21 17 5 8 7 1 4 11 17 22 21
9 5 7 6 7 11 12 11 11 12 3 13 5 16 15 16 10 3 2 4 8 9 9 6 12 23 18 17 19 28 29 28 28 20 18 19 16 11 5 6 11 7 7 11 13
5 4 5 6 9 12 13 14 10 6 11 14 3 7 8 8 13 13 5 10 2 9 5 6 14 7 14 1 4 14 27 30 30 27 25 19 21 18 11 7 4 4 4 2 4
7 5 5 15 10 11 8 10 11 11 11 9 6 15 10 4 9 8 9 7 5 6 6 6 4 6 14 10 7 10 12 15 25 29 27 26 23 11 13 13 22 24 20 18 19
5 7 5 8 9 8 7 9 15 13 7 7 14 16 14 9 13 19 18 17 15 11 7 6 5 6 15 12 10 15 22 20 18 18 18 23 17 16 19 14 15 15 16 18 20
Wind_Direction
345 340 333 329 322 316 312 308 303 300 292 289 283 277 279 279 277 276 261 249 244 223 206 177 176 183 185 204 215 248 255 188 105 204 117 148 133 126 115 140 153 155 151 158 156
359 353 346 340 334 325 315 309 303 298 294 285 283 279 281 286 284 273 266 260 238 213 191 183 184 181 189 204 205 226 275 66 55 35 159 165 156 146 149 154 149 136 131 153 159
358 354 348 344 339 333 325 317 308 300 296 288 281 281 285 294 303 268 252 231 222 210 194 191 190 184 207 203 203 210 251 130 112 52 309 163 173 162 156 173 171 158 154 160 166
354 350 345 342 337 330 324 317 311 304 295 290 281 276 282 280 258 233 180 213 206 183 185 188 190 195 206 204 205 237 237 255 141 360 323 190 163 179 174 102 169 167 166 167 173
354 349 344 342 336 329 323 318 309 305 295 285 278 272 268 245 244 275 213 134 170 169 184 186 192 199 210 208 198 222 226 242 250 251 295 198 191 197 188 139 163 167 170 177 180
352 348 344 340 337 331 323 320 315 316 297 276 266 261 237 248 255 226 235 233 176 178 187 190 197 200 233 219 211 198 224 236 241 232 248 218 196 195 195 167 162 172 177 180 186
352 349 346 343 337 331 325 320 320 320 300 271 258 245 238 241 245 232 207 195 187 187 188 195 198 199 216 214 219 219 222 224 229 226 221 214 211 204 171 175 169 177 181 186 189
350 348 348 345 341 333 327 322 318 319 318 273 247 229 247 262 229 230 198 195 198 193 200 197 200 209 226 233 218 218 226 236 224 208 204 205 216 188 177 181 182 178 184 188 191
350 346 347 346 343 337 331 328 317 313 318 298 213 196 252 243 228 200 189 189 188 191 198 195 205 217 221 233 223 205 222 217 190 205 191 202 237 158 180 192 189 186 183 188 191
349 347 345 347 346 340 338 332 319 320 320 276 198 212 232 229 203 192 187 184 175 170 176 191 200 208 217 212 217 206 218 230 210 190 204 204 236 161 182 199 196 192 188 190 194
351 348 345 347 347 350 353 340 321 250 266 242 262 252 201 219 167 183 178 162 168 175 184 190 199 207 204 213 226 227 220 227 210 213 220 230 231 233 193 200 208 195 196 197 199
353 351 346 347 347 344 1 41 50 337 300 269 252 243 235 236 204 185 176 172 173 184 188 184 215 212 216 209 222 230 228 227 227 167 231 233 234 231 215 206 210 201 201 205 198
354 352 348 349 351 357 21 38 340 336 265 281 237 237 225 212 221 184 185 193 188 189 195 199 205 213 207 211 212 222 225 228 230 203 230 255 251 233 213 214 213 212 207 206 202
353 350 347 350 7 0 359 332 323 319 276 210 210 237 191 189 220 202 197 191 196 201 199 220 200 199 207 215 208 219 217 236 240 222 240 198 253 224 222 208 208 210 205 204 202
352 349 345 351 340 353 328 327 317 247 272 107 140 168 172 195 134 193 194 202 206 203 200 202 213 196 211 212 211 230 220 219 235 242 249 248 247 254 198 217 210 211 208 205 204
351 349 347 347 344 330 332 329 269 228 239 141 134 185 174 210 217 160 185 207 222 218 209 223 209 215 219 213 221 212 221 222 230 234 239 236 238 244 233 215 222 211 210 205 205
353 350 351 346 330 329 333 322 232 239 56 54 2 331 246 195 211 186 195 197 201 203 214 212 217 218 208 213 206 202 196 196 210 219 234 227 235 235 251 234 216 219 208 206 204
354 349 329 338 335 331 333 246 250 340 20 344 320 296 243 201 224 203 195 206 215 208 190 205 216 204 194 207 197 196 203 207 210 219 228 216 233 235 234 238 233 232 218 204 206
354 349 2 334 331 331 302 250 275 15 346 324 310 280 193 204 293 214 215 213 207 214 226 197 225 185 201 197 199 194 213 216 250 192 268 226 218 241 253 220 224 231 224 210 203
353 345 354 344 333 320 268 313 347 342 332 318 300 352 315 345 269 217 189 21 234 211 239 257 220 186 191 195 210 209 204 214 228 243 241 226 232 226 212 216 219 215 213 207 204
357 328 343 344 340 301 341 340 324 325 333 311 316 309 299 299 298 266 142 42 339 177 241 250 239 185 182 201 195 201 201 213 225 230 218 235 235 211 230 211 216 212 211 205 201
360 325 340 356 307 344 351 330 317 321 339 306 281 277 300 306 286 260 139 38 349 274 219 218 236 203 203 198 211 203 205 201 214 210 239 278 261 115 226 215 215 215 209 212 209
345 316 341 4 7 347 340 319 315 339 358 350 311 344 300 289 272 295 56 46 2 12 24 168 223 212 187 202 204 217 202 209 217 229 211 220 214 124 117 156 212 227 224 217 220
343 324 349 332 2 336 342 328 331 350 333 344 334 322 317 256 243 274 318 32 352 9 328 262 245 223 214 211 199 213 209 214 212 222 225 211 234 163 206 143 148 169 200 219 219
357 4 341 315 330 331 314 294 313 346 341 319 83 4 330 283 270 255 315 304 256 3 335 318 221 237 249 288 287 238 215 210 218 222 227 228 214 238 250 228 234 296 315 341 222
321 334 307 301 296 294 310 311 327 335 333 325 2 326 313 316 310 331 330 314 318 328 331 336 198 254 245 217 226 239 231 240 235 225 233 240 246 222 219 290 270 267 288 284 272
277 288 273 277 292 298 312 318 310 313 308 279 325 316 311 328 283 294 293 282 279 291 305 289 283 237 229 212 240 243 224 220 227 232 238 236 243 248 257 247 257 275 285 293 286